FLOCK 4BE-16 (60483 NORAD) Tracking and Keplerian Element Data

This shows tracking and keplerian element data for the satellite.

Feedback or suggestion? Click here.




ElementValue
Catalog60483
NameFLOCK 4BE-16
Epoch Orbit864
Epoch Day286.77337105
Epoch Year2024
RAAN1.4253
Inclination97.4372
Eccentricity0.0003062
Argument of Perigee263.3854
Mean Anonmoly96.7033
Mean Motion15.19556221
Decay Rate0.00022309
L11 60483U 24149R 24286.77337105 .00022309 00000+0 10499-2 0 9996
L22 60483 97.4372 1.4253 0003062 263.3854 96.7033 15.19556221 8645



Live tracking and technical data element details for FLOCK 4BE-16 (NORAD 60483). FLOCK 4BE-16 can be tracked NOW for your location showing map with azimuth and elevation plus other details from your city location.







IsCatalogInMostPopularTable: catalog: 60483, numindb: 7
Update: records affected: 1



GetName: 60483 FLOCK 4BE-16

Hit Count: updated at: Wed, 04 Dec 2024 18:56:59 GMT